CDT,Max TemperatureF,Mean TemperatureF,Min TemperatureF,Max Dew PointF,MeanDew PointF,Min DewpointF,Max Humidity, Mean Humidity, Min Humidity, Max Sea Level PressureIn, Mean Sea Level PressureIn, Min Sea Level PressureIn, Max VisibilityMiles, Mean VisibilityMiles, Min VisibilityMiles, Max Wind SpeedMPH, Mean Wind SpeedMPH, Max Gust SpeedMPH,PrecipitationIn, CloudCover, Events, WindDirDegrees
2013-10-1,86,70,55,61,56,50,83,62,40,29.91,29.85,29.79,10,10,8,16,8,23,0.00,0,,137
2013-10-2,84,74,64,67,65,60,94,79,56,29.97,29.89,29.78,10,7,2,23,11,26,0.00,6,,161
2013-10-3,90,80,71,66,65,64,84,67,43,29.79,29.70,29.60,10,10,10,28,18,37,0.00,4,,169
2013-10-4,91,73,54,66,55,30,76,53,25,29.99,29.72,29.62,10,10,10,29,19,39,0.05,2,,217
2013-10-5,64,54,44,34,31,29,63,45,29,30.10,30.03,29.97,10,10,10,22,14,36,0.00,4,,304
2013-10-6,71,58,46,36,29,20,56,39,15,30.06,30.01,29.97,10,10,10,23,13,30,0.00,0,,314
2013-10-7,77,56,37,39,34,31,83,48,19,30.19,30.10,30.04,10,10,10,14,7,,0.00,0,,218
2013-10-8,80,64,50,48,41,39,68,47,25,30.04,29.97,29.89,10,10,10,24,13,33,0.00,0,,159
2013-10-9,82,68,55,53,48,45,77,55,27,29.96,29.92,29.88,10,10,10,26,16,33,0.00,0,,160
2013-10-10,84,70,57,56,54,52,81,60,39,29.93,29.85,29.71,10,10,10,25,16,40,0.00,0,,160
2013-10-11,82,70,59,59,47,32,84,51,17,29.88,29.73,29.67,10,10,10,21,15,29,0.00,1,,216
2013-10-12,73,60,48,42,37,29,74,49,20,30.24,30.10,29.90,10,10,10,12,8,16,0.00,0,,27
2013-10-13,73,58,44,47,40,34,68,48,28,30.32,30.24,30.15,10,10,10,20,10,28,0.00,3,,100
2013-10-14,64,60,57,61,53,44,94,76,50,30.19,29.96,29.76,10,8,2,24,14,37,0.27,8,Rain,150
2013-10-15,61,52,44,45,37,34,80,61,39,30.16,30.06,29.92,10,10,10,21,13,28,0.00,0,,328
2013-10-16,55,46,37,36,34,32,89,65,42,30.17,30.11,30.04,10,10,10,9,7,,0.00,3,,299
2013-10-17,68,50,34,41,35,27,96,62,24,30.07,30.01,29.95,10,10,6,14,4,,0.00,0,,314
2013-10-18,44,39,33,36,33,30,93,85,67,30.21,30.15,30.04,10,7,0,12,7,18,0.18,6,Fog-Rain-Snow,348
2013-10-19,69,50,33,37,33,29,92,64,24,30.14,30.02,29.90,10,10,10,16,6,22,0.00,0,,269
2013-10-20,72,54,37,42,37,32,82,55,30,29.97,29.85,29.78,10,10,10,15,5,,0.00,0,,252
2013-10-21,63,50,37,39,35,29,89,58,33,30.14,30.06,29.97,10,10,10,18,10,25,0.00,1,,347
2013-10-22,71,56,43,42,38,35,80,56,32,30.10,30.02,29.96,10,10,10,22,7,29,0.00,2,,330
2013-10-23,69,51,33,43,37,31,92,64,35,30.15,30.09,30.00,10,10,10,14,6,20,0.00,0,,60
2013-10-24,55,46,33,38,32,26,86,63,38,30.43,30.34,30.16,10,10,8,10,7,18,0.00,1,,43
2013-10-25,60,46,33,39,30,24,82,57,26,30.44,30.33,30.13,10,10,10,21,6,29,0.00,1,,176
2013-10-26,66,50,34,46,35,21,83,58,19,30.21,30.14,30.07,10,10,10,16,6,24,0.00,2,Rain,43
2013-10-27,69,48,28,32,29,24,92,56,22,30.17,30.03,29.91,10,10,10,20,5,23,0.00,0,,194
2013-10-28,64,54,44,55,50,32,100,81,56,30.06,29.99,29.91,10,7,0,20,11,25,0.00,6,Fog-Rain,157
2013-10-29,71,63,55,65,57,50,100,89,75,30.00,29.94,29.87,10,6,1,15,10,24,1.19,8,Rain-Thunderstorm,135
2013-10-30,55,52,48,54,50,46,94,91,83,29.94,29.84,29.73,10,4,0,15,5,,0.00,8,Fog-Rain,3
2013-10-31,66,54,42,46,43,33,93,78,31,29.75,29.67,29.62,10,8,2,22,9,31,0.21,5,Rain-Thunderstorm,350